Gastonia, NC

10:56 PM EDT on July 25, 2017 (GMT -0400)
Gastonia Municipal

Weather History for KAKH - March, 2013

Change the Weather History Date:

Thursday, March 7, 2013

  Actual Average (KCLT) Record (KCLT)
Temperature  
Mean Temperature 42 °F -  
Max Temperature 55 °F 59 °F 85 °F (1974)
Min Temperature 28 °F 37 °F 14 °F (1899)
Degree Days  
Heating Degree Days 24    
Moisture  
Dew Point 25 °F    
Average Humidity 56    
Maximum Humidity 85    
Minimum Humidity 31    
Precipitation  
Precipitation 0.00 in - - ()
Sea Level Pressure  
Sea Level Pressure 30.20 in    
Wind  
Wind Speed 3 mph (North)    
Max Wind Speed 10 mph    
Max Gust Speed -    
Visibility 10 miles    
Events      
Averages and records for this station are not official NWS values.
T = Trace of Precipitation, MM = Missing Value Source: NWS Daily Summary

Daily Weather History Graph

Daily Weather History Graph

Search for Another Location

Airport or City:

Trip Planner

Search our weather history database for the weather conditions in past years. The results will help you decide how hot, cold, wet, or windy it might be!

Date:

Astronomy

Mar. 07, 2013 Rise Set
Actual Time 6:45 AM EST 6:25 PM EST
Civil Twilight 6:20 AM EST 6:50 PM EST
Nautical Twilight 5:51 AM EST 7:20 PM EST
Astronomical Twilight 5:21 AM EST 7:49 PM EST
Moon 3:36 AM EST (3/7) 2:19 PM EST (3/7)
Length of Visible Light 12h 30m
Length of Day
11h 39m
Waning Crescent, 20% of the Moon is Illuminated
Mar 7
Waning Crescent
Mar 11
New
Mar 19
First Quarter
Mar 27
Full
Apr 3
Last Quarter

Hourly Weather History & Observations

Time (EST) Temp. Windchill Dew Point Humidity Pressure Visibility Wind Dir Wind Speed Gust Speed Precip Events Conditions
12:54 AM 30.0 °F - 24.1 °F 79% 30.14 in 10.0 mi Calm Calm - N/A   Clear
1:54 AM 33.1 °F - 24.1 °F 70% 30.14 in 10.0 mi Calm Calm - N/A   Clear
2:54 AM 28.9 °F - 23.0 °F 78% 30.14 in 10.0 mi Calm Calm - N/A   Clear
3:54 AM 28.0 °F - 24.1 °F 85% 30.16 in 10.0 mi Calm Calm - N/A   Clear
4:54 AM 30.0 °F 26.5 °F 24.1 °F 79% 30.17 in 10.0 mi WNW 3.5 mph - N/A   Clear
5:54 AM 30.9 °F 27.5 °F 24.1 °F 76% 30.19 in 10.0 mi West 3.5 mph - N/A   Clear
6:54 AM 30.0 °F - 24.1 °F 79% 30.20 in 10.0 mi Calm Calm - N/A   Clear
7:54 AM 32.0 °F - 26.1 °F 79% 30.23 in 10.0 mi Calm Calm - N/A   Clear
8:54 AM 37.9 °F 34.4 °F 27.0 °F 65% 30.24 in 10.0 mi WNW 4.6 mph - N/A   Clear
9:54 AM 42.1 °F 37.7 °F 26.1 °F 53% 30.24 in 10.0 mi Variable 6.9 mph - N/A   Clear
10:54 AM 45.0 °F 41.8 °F 27.0 °F 49% 30.23 in 10.0 mi NNW 5.8 mph - N/A   Clear
11:54 AM 48.0 °F - 26.1 °F 42% 30.21 in 10.0 mi North 9.2 mph - N/A   Clear
12:54 PM 48.9 °F - 27.0 °F 43% 30.19 in 10.0 mi NNW 4.6 mph - N/A   Clear
1:54 PM 53.1 °F - 27.0 °F 37% 30.16 in 10.0 mi Variable 4.6 mph - N/A   Clear
2:54 PM 55.9 °F - 27.0 °F 33% 30.15 in 10.0 mi North 5.8 mph - N/A   Clear
3:54 PM 55.0 °F - 26.1 °F 33% 30.15 in 10.0 mi Calm Calm - N/A   Clear
4:54 PM 55.0 °F - 25.0 °F 31% 30.15 in 10.0 mi NNE 4.6 mph - N/A   Clear
5:54 PM 54.0 °F - 25.0 °F 33% 30.16 in 10.0 mi NW 4.6 mph - N/A   Clear
6:54 PM 50.0 °F - 25.0 °F 38% 30.19 in 10.0 mi North 5.8 mph - N/A   Clear
7:54 PM 46.0 °F 41.4 °F 27.0 °F 47% 30.22 in 10.0 mi NE 9.2 mph - N/A   Clear
8:54 PM 42.1 °F 36.1 °F 24.1 °F 49% 30.26 in 10.0 mi NNE 10.4 mph - N/A   Clear
9:54 PM 39.0 °F 32.8 °F 24.1 °F 55% 30.27 in 10.0 mi NNE 9.2 mph - N/A   Clear
10:54 PM 37.0 °F 31.6 °F 24.1 °F 59% 30.27 in 10.0 mi NNE 6.9 mph - N/A   Clear
11:54 PM 36.0 °F 32.1 °F 24.1 °F 62% 30.27 in 10.0 mi NNE 4.6 mph - N/A   Clear